Weather reports worldwide

Advertisment
Gilze-Rijen, Netherlands (6350): temperature & dewpoint: 09.08.2020 21:00:00 - 15.08.2020 21:00:00 (CEST)Gilze-Rijen, Netherlands (6350): temperature 5cm: 09.08.2020 21:00:00 - 15.08.2020 21:00:00 (CEST)Gilze-Rijen, Netherlands (6350): wind speed & gusts: 09.08.2020 21:00:00 - 15.08.2020 21:00:00 (CEST)Gilze-Rijen, Netherlands (6350): wind direction: 09.08.2020 21:00:00 - 15.08.2020 21:00:00 (CEST)Gilze-Rijen, Netherlands (6350): reduced air pressure: 09.08.2020 21:00:00 - 15.08.2020 21:00:00 (CEST)Gilze-Rijen, Netherlands (6350): visibility: 09.08.2020 21:00:00 - 15.08.2020 21:00:00 (CEST)Gilze-Rijen, Netherlands (6350): precipitation: 09.08.2020 21:00:00 - 15.08.2020 21:00:00 (CEST)
Date & Time tt [°C] td [°C] tt 5cm [°C] ff [km/h] ff [kn] fx [km/h] fx [kn] dd ppp [hPa] vv [km] rr [mm]
15.08.2020 21:00:00 20,0 19,0 20,0 4 2 - - SSW 1013,8 10 -
15.08.2020 20:00:00 20,5 19,3 20,5 5 3 18 10 NE 1013,7 10 1,2
15.08.2020 19:00:00 20,2 17,1 19,6 22 12 43 23 SE 1013,9 5 2,0
15.08.2020 18:00:00 27,5 17,9 28,7 4 2 11 6 - 1013,7 10 0,0
15.08.2020 17:00:00 26,8 17,7 28,3 5 3 14 8 N 1013,7 10 0,2
15.08.2020 16:00:00 25,5 18,2 26,5 4 2 14 8 - 1014,4 10 0,0
15.08.2020 15:00:00 26,2 17,3 27,0 5 3 14 8 NNE 1014,6 10 0,0
15.08.2020 14:00:00 27,0 17,3 29,1 9 5 18 10 NNE 1014,9 10 0,0
15.08.2020 13:00:00 26,0 17,1 29,7 5 3 14 8 - 1015,0 10 0,0
15.08.2020 12:00:00 25,3 18,2 28,1 5 3 11 6 - 1015,2 7 0,0
15.08.2020 11:00:00 23,9 18,2 26,4 5 3 11 6 - 1015,2 5 0,0
15.08.2020 10:00:00 21,5 18,8 22,5 4 2 11 6 - 1015,2 3,8 0,0
15.08.2020 09:00:00 19,8 18,9 19,9 2 1 4 2 - 1015,3 3,2 0,0
15.08.2020 08:00:00 18,3 18,3 18,2 2 1 7 4 SW 1015,0 1,7 0,0
15.08.2020 07:00:00 16,4 16,2 15,4 2 1 7 4 SW 1014,7 0,1 0,0
15.08.2020 06:00:00 16,5 16,3 15,2 4 2 7 4 - 1014,2 0,4 0,0
15.08.2020 05:00:00 17,2 17,1 15,7 5 3 7 4 SSW 1014,2 2,0 0,0
15.08.2020 04:00:00 17,6 17,3 15,7 2 1 11 6 - 1014,4 1,7 0,0
15.08.2020 03:00:00 18,1 17,9 17,1 8 4 11 6 SSW 1014,4 2,1 0,0
15.08.2020 02:00:00 18,1 17,9 17,3 5 3 7 4 SW 1014,6 1,2 0,0
15.08.2020 01:00:00 18,4 18,2 17,4 4 2 11 6 - 1014,7 2,1 0,0
15.08.2020 00:00:00 19,0 18,5 18,4 5 3 11 6 WSW 1014,4 2,1 0,0
14.08.2020 23:00:00 19,2 18,5 17,6 2 1 11 6 - 1014,3 3,7 0,0
14.08.2020 22:00:00 19,8 18,4 19,1 8 4 14 8 W 1014,0 3,6 0,0
14.08.2020 21:00:00 21,7 19,2 21,4 9 5 18 10 W 1013,6 4,7 0,0
14.08.2020 20:00:00 23,0 19,7 23,2 13 7 22 12 WNW 1013,3 6 0,0
14.08.2020 19:00:00 23,6 20,1 24,2 11 6 29 16 WSW 1012,9 9 0,0
14.08.2020 18:00:00 25,1 18,3 27,6 15 8 32 18 SW 1012,7 10 0,0
14.08.2020 17:00:00 24,5 19,0 25,6 11 6 32 18 SSW 1012,4 10 0,0
14.08.2020 16:00:00 26,9 17,9 28,4 21 11 29 16 S 1012,3 10 0,0
14.08.2020 15:00:00 26,2 18,3 28,4 15 8 25 14 S 1012,5 10 0,0
14.08.2020 14:00:00 24,5 18,8 25,3 16 9 25 14 S 1012,8 10 0,0
14.08.2020 13:00:00 25,5 18,0 27,5 13 7 18 10 S 1012,8 10 0,0
14.08.2020 12:00:00 25,4 18,1 26,9 9 5 25 14 S 1012,6 10 0,0
14.08.2020 11:00:00 25,2 18,2 27,5 9 5 18 10 WSW 1012,5 10 0,0
14.08.2020 10:00:00 23,5 18,7 25,0 8 4 14 8 SW 1012,5 10 0,0
14.08.2020 09:00:00 21,9 18,7 22,4 8 4 14 8 SSW 1012,4 10 0,0
14.08.2020 08:00:00 19,7 19,0 19,1 2 1 7 4 - 1012,3 3,5 0,0
14.08.2020 07:00:00 17,9 17,6 17,2 4 2 7 4 SSE 1012,0 1,9 0,0
14.08.2020 06:00:00 17,5 17,4 15,9 4 2 7 4 - 1012,0 1,5 0,0
14.08.2020 05:00:00 18,3 18,0 16,4 4 2 11 6 - 1011,7 2,0 0,0
14.08.2020 04:00:00 18,9 18,4 18,2 9 5 11 6 SSW 1011,6 2,7 0,0
14.08.2020 03:00:00 18,8 18,4 16,9 2 1 7 4 - 1011,9 2,4 0,0
14.08.2020 02:00:00 19,3 18,5 18,3 5 3 7 4 S 1012,0 5 0,0
14.08.2020 01:00:00 19,8 18,9 19,1 4 2 14 8 - 1012,6 8 0,0
14.08.2020 00:00:00 19,9 18,7 19,5 5 3 14 8 SW 1012,3 7 0,0
13.08.2020 23:00:00 19,8 18,7 18,9 5 3 14 8 S 1012,4 10 0,0
13.08.2020 22:00:00 20,0 18,6 18,9 4 2 14 8 - 1011,8 10 0,0
13.08.2020 21:00:00 20,6 18,5 20,0 5 3 14 8 - 1011,0 10 0,0
13.08.2020 20:00:00 21,6 18,2 21,2 11 6 25 14 W 1011,1 10 0,2
13.08.2020 19:00:00 23,8 17,2 23,6 13 7 32 18 SW 1011,5 10 0,0
13.08.2020 18:00:00 25,1 20,2 25,2 8 4 29 16 SW 1010,8 10 0,0
13.08.2020 17:00:00 28,7 19,5 28,6 5 3 25 14 NNW 1010,5 10 0,0
13.08.2020 16:00:00 30,7 20,4 31,4 13 7 25 14 W 1010,5 10 0,0
13.08.2020 15:00:00 32,4 19,0 36,0 8 4 22 12 - 1010,7 10 0,0
13.08.2020 14:00:00 31,6 19,2 34,6 8 4 18 10 SSE 1011,0 10 0,0
13.08.2020 13:00:00 29,8 19,2 33,3 9 5 18 10 ESE 1011,0 10 0,0
13.08.2020 12:00:00 28,3 19,3 29,3 4 2 18 10 - 1011,3 10 0,0
13.08.2020 11:00:00 25,4 19,4 26,1 9 5 18 10 SSW 1011,5 10 0,0
13.08.2020 10:00:00 25,4 19,2 26,6 9 5 36 19 S 1011,4 10 0,0
13.08.2020 09:00:00 22,2 19,9 22,2 8 4 11 6 SSE 1011,6 10 0,0
13.08.2020 08:00:00 21,3 19,2 20,9 4 2 14 8 - 1011,3 10 0,6
13.08.2020 07:00:00 21,6 18,1 21,2 9 5 22 12 SSE 1011,4 10 0,0
13.08.2020 06:00:00 21,5 17,8 21,1 13 7 22 12 SE 1011,3 10 0,0
13.08.2020 05:00:00 21,8 18,0 21,0 9 5 14 8 ESE 1011,0 10 0,0
13.08.2020 04:00:00 20,6 17,8 18,7 4 2 7 4 E 1011,2 10 0,0
13.08.2020 03:00:00 21,9 17,9 19,9 4 2 14 8 E 1011,4 10 0,0
13.08.2020 02:00:00 23,6 18,0 22,8 13 7 18 10 ESE 1011,5 10 0,0
13.08.2020 01:00:00 24,0 17,7 22,2 8 4 14 8 ESE 1011,9 10 0,0
13.08.2020 00:00:00 24,7 17,7 23,4 11 6 14 8 E 1012,0 10 0,0
12.08.2020 23:00:00 26,5 18,4 24,5 8 4 11 6 SE 1012,5 10 0,0
12.08.2020 22:00:00 27,9 18,5 25,7 8 4 14 8 SSE 1012,1 10 0,0
12.08.2020 21:00:00 29,8 18,1 29,0 9 5 18 10 ENE 1011,6 10 0,0
12.08.2020 20:00:00 31,3 17,3 31,2 15 8 22 12 NE 1011,3 10 0,0
12.08.2020 19:00:00 32,4 17,5 33,1 13 7 22 12 ENE 1011,6 10 0,0
12.08.2020 18:00:00 33,0 17,6 33,9 11 6 22 12 E 1011,9 10 0,0
12.08.2020 17:00:00 33,1 17,1 35,6 13 7 25 14 ESE 1012,3 10 0,0
12.08.2020 16:00:00 32,7 17,6 35,5 13 7 29 16 E 1012,9 10 0,0
12.08.2020 15:00:00 32,6 17,9 35,3 15 8 40 21 ESE 1013,3 10 0,0
12.08.2020 14:00:00 31,4 17,4 34,7 16 9 29 16 E 1013,6 10 0,0
12.08.2020 13:00:00 30,6 18,4 33,3 15 8 25 14 SE 1013,8 10 0,0
12.08.2020 12:00:00 28,8 18,2 31,2 13 7 25 14 SSE 1014,2 10 0,0
12.08.2020 11:00:00 27,3 18,3 29,6 11 6 25 14 SE 1014,3 10 0,0
12.08.2020 10:00:00 26,2 18,4 27,3 13 7 25 14 ESE 1014,3 10 0,0
12.08.2020 09:00:00 24,8 18,6 25,0 13 7 18 10 ESE 1014,4 10 0,0
12.08.2020 08:00:00 22,5 18,4 21,3 4 2 11 6 - 1014,5 10 0,0
12.08.2020 07:00:00 21,0 18,0 19,6 5 3 11 6 E 1014,4 10 0,0
12.08.2020 06:00:00 21,6 18,4 20,7 11 6 14 8 ESE 1014,1 10 0,0
12.08.2020 05:00:00 21,5 18,8 20,8 9 5 14 8 E 1014,1 10 0,0
12.08.2020 04:00:00 22,2 18,8 21,0 9 5 14 8 E 1014,4 10 0,0
12.08.2020 03:00:00 21,9 19,1 21,2 11 6 18 10 E 1014,4 10 0,0
12.08.2020 02:00:00 22,8 20,6 22,2 11 6 18 10 NNE 1014,7 7 0,0
12.08.2020 01:00:00 22,2 21,1 21,8 13 7 14 8 NNE 1014,8 5 0,0
12.08.2020 00:00:00 22,4 21,8 22,0 8 4 22 12 ENE 1014,5 5 0,3
11.08.2020 23:00:00 22,3 21,4 22,1 4 2 14 8 - 1015,1 5 1,5
11.08.2020 22:00:00 22,2 21,2 22,1 5 3 11 6 SE 1014,8 6 0,7
11.08.2020 21:00:00 22,8 19,5 22,0 16 9 36 19 W 1014,4 10 0,0
11.08.2020 20:00:00 28,5 17,1 27,9 13 7 47 25 E 1013,7 10 0,0
11.08.2020 19:00:00 34,4 16,3 35,7 11 6 32 18 NNE 1013,4 10 0,0
11.08.2020 18:00:00 34,6 16,5 36,3 11 6 18 10 NNE 1012,8 10 0,0
11.08.2020 17:00:00 34,1 17,3 36,6 9 5 18 10 N 1013,4 10 0,0
11.08.2020 16:00:00 33,7 17,5 35,5 5 3 22 12 - 1013,9 10 0,0
11.08.2020 15:00:00 33,5 18,1 36,4 9 5 18 10 - 1014,2 10 0,0
11.08.2020 14:00:00 32,7 17,9 35,6 13 7 25 14 E 1014,5 10 0,0
11.08.2020 13:00:00 32,5 17,7 35,5 13 7 25 14 ESE 1014,7 10 0,0
11.08.2020 12:00:00 30,5 17,8 33,9 11 6 18 10 E 1014,8 10 0,0
11.08.2020 11:00:00 28,9 18,1 31,7 8 4 29 16 E 1014,8 10 0,0
11.08.2020 10:00:00 26,9 17,7 28,6 9 5 18 10 ESE 1014,9 10 0,0
11.08.2020 09:00:00 24,9 17,6 25,8 11 6 18 10 ENE 1014,7 10 0,0
11.08.2020 08:00:00 23,2 17,3 23,3 11 6 14 8 ENE 1014,3 10 0,0
11.08.2020 07:00:00 21,4 17,1 20,2 8 4 11 6 ENE 1014,3 10 0,0
11.08.2020 06:00:00 20,0 16,6 17,8 8 4 11 6 NE 1014,0 10 0,0
11.08.2020 05:00:00 19,9 16,6 17,6 8 4 11 6 NE 1014,1 10 0,0
11.08.2020 04:00:00 20,6 16,7 18,3 8 4 11 6 NE 1014,2 10 0,0
11.08.2020 03:00:00 21,7 16,7 18,8 8 4 11 6 NE 1014,4 10 0,0
11.08.2020 02:00:00 22,6 16,6 19,1 5 3 11 6 NNE 1014,5 10 0,0
11.08.2020 01:00:00 23,4 16,5 20,5 8 4 11 6 NE 1014,7 10 0,0
11.08.2020 00:00:00 24,0 16,3 21,4 8 4 14 8 NNE 1014,5 10 0,0
10.08.2020 23:00:00 26,7 16,1 25,2 11 6 14 8 ENE 1014,4 10 0,0
10.08.2020 22:00:00 27,6 16,0 26,3 11 6 22 12 NE 1014,1 10 0,0
10.08.2020 21:00:00 29,3 15,6 28,4 13 7 25 14 NE 1013,5 10 0,0
10.08.2020 20:00:00 31,4 15,1 31,2 15 8 25 14 NE 1013,1 10 0,0
10.08.2020 19:00:00 33,1 14,9 34,1 13 7 22 12 ENE 1012,9 10 0,0
10.08.2020 18:00:00 33,7 14,8 35,8 11 6 22 12 NE 1013,1 10 0,0
10.08.2020 17:00:00 33,4 14,6 35,0 11 6 29 16 ENE 1013,5 10 0,0
10.08.2020 16:00:00 33,6 15,6 36,3 18 10 29 16 NE 1013,7 10 0,0
10.08.2020 15:00:00 32,6 15,6 33,3 15 8 25 14 E 1014,1 10 0,0
10.08.2020 14:00:00 32,7 15,6 36,4 15 8 25 14 ESE 1014,5 10 0,0
10.08.2020 13:00:00 31,8 16,0 34,2 15 8 22 12 E 1014,5 10 0,0
10.08.2020 12:00:00 30,7 16,2 33,4 9 5 25 14 E 1014,7 10 0,0
10.08.2020 11:00:00 29,2 16,4 31,7 9 5 18 10 E 1014,7 10 0,0
10.08.2020 10:00:00 26,5 16,9 28,5 9 5 18 10 E 1014,8 10 0,0
10.08.2020 09:00:00 23,8 17,1 24,1 11 6 18 10 ENE 1014,7 10 0,0
10.08.2020 08:00:00 21,7 17,4 20,8 9 5 18 10 ENE 1014,7 10 0,0
10.08.2020 07:00:00 19,1 17,0 17,3 8 4 11 6 NE 1014,6 10 0,0
10.08.2020 06:00:00 19,0 16,5 16,4 4 2 7 4 - 1014,6 10 0,0
10.08.2020 05:00:00 20,0 16,8 17,5 5 3 11 6 E 1014,9 10 0,0
10.08.2020 04:00:00 21,6 16,9 20,0 9 5 14 8 E 1015,5 10 0,0
10.08.2020 03:00:00 22,0 16,9 20,3 9 5 14 8 E 1015,5 10 0,0
10.08.2020 02:00:00 21,8 17,4 19,9 9 5 14 8 E 1015,0 10 0,0
10.08.2020 01:00:00 22,5 18,0 19,5 2 1 11 6 - 1015,0 10 0,0
10.08.2020 00:00:00 24,9 18,3 21,6 4 2 14 8 - 1015,2 10 0,0
09.08.2020 23:00:00 27,4 18,0 26,3 11 6 18 10 ENE 1015,1 10 0,0
09.08.2020 22:00:00 27,2 17,7 25,4 9 5 14 8 NNE 1015,2 10 0,0
09.08.2020 21:00:00 28,7 15,1 27,0 8 4 14 8 NE 1014,7 10 0,0

tt = temperature
td = dewpoint
tt 5cm = temperature 5cm
ff = wind speed
fx = gusts
dd = wind direction
ppp = reduced air pressure
vv = visibility
rr = precipitation

Next stations